Weather History for KFRG - December, 2011

Change the Weather History Date:

Tuesday, December 6, 2011

  Actual Average Record
Temperature  
Mean Temperature 54 °F -  
Max Temperature 57 °F 44 °F 68 °F (2001)
Min Temperature 51 °F 32 °F 19 °F (2002)
Degree Days  
Heating Degree Days 11    
Growing Degree Days 4 (Base 50)    
Moisture  
Dew Point 55 °F    
Average Humidity 99    
Maximum Humidity 100    
Minimum Humidity 93    
Precipitation  
Precipitation 0.29 in - - ()
Sea Level Pressure  
Sea Level Pressure 30.06 in    
Wind  
Wind Speed 8 mph (SSW)    
Max Wind Speed 16 mph    
Max Gust Speed -    
Visibility 5 miles    
Events Rain    
Averages and records for this station are not official NWS values.
T = Trace of Precipitation, MM = Missing Value Source: NWS Daily Summary

Daily Weather History Graph

Daily Weather History Graph

Search for Another Location

Airport or City:

Trip Planner

Search our weather history database for the weather conditions in past years. The results will help you decide how hot, cold, wet, or windy it might be!

Date:

Astronomy

Dec. 06, 2011 Rise Set
Actual Time 7:03 AM EST 4:26 PM EST
Civil Twilight 6:32 AM EST 4:56 PM EST
Nautical Twilight 5:58 AM EST 5:30 PM EST
Astronomical Twilight 5:25 AM EST 6:04 PM EST
Moon 1:52 PM EST (12/6) 3:18 AM EST (12/6)
Length of Visible Light 10h 24m
Length of Day
9h 23m
Waxing Gibbous, 86% of the Moon is Illuminated
Dec 6
Waxing Gibbous
Dec 10
Full
Dec 17
Last Quarter
Dec 24
New
Jan 1
First Quarter

Hourly Weather History & Observations

Time (EST) Temp. Dew Point Humidity Pressure Visibility Wind Dir Wind Speed Gust Speed Precip Events Conditions
12:53 AM 51.1 °F 51.1 °F 100% 30.20 in 7.0 mi SSE 3.5 mph - N/A   Overcast
1:53 AM 52.0 °F 51.1 °F 97% 30.17 in 6.0 mi SE 3.5 mph - N/A   Overcast
2:53 AM 52.0 °F 51.1 °F 97% 30.16 in 8.0 mi SSE 6.9 mph - N/A   Overcast
3:53 AM 53.1 °F 52.0 °F 96% 30.14 in 10.0 mi South 6.9 mph - N/A   Scattered Clouds
4:53 AM 54.0 °F 53.1 °F 97% 30.12 in 10.0 mi South 6.9 mph - N/A   Partly Cloudy
5:53 AM 55.0 °F 54.0 °F 96% 30.12 in 7.0 mi SSW 8.1 mph - 0.01 in Rain Light Rain
6:08 AM 55.4 °F 53.6 °F 94% 30.11 in 10.0 mi SW 8.1 mph - 0.01 in Rain Light Rain
6:27 AM 55.4 °F 53.6 °F 94% 30.10 in 10.0 mi SSW 10.4 mph - 0.01 in   Overcast
6:42 AM 55.4 °F 53.6 °F 94% 30.10 in 10.0 mi SSW 11.5 mph - 0.01 in   Overcast
6:53 AM 55.9 °F 54.0 °F 93% 30.12 in 10.0 mi SW 11.5 mph - 0.01 in   Overcast
7:04 AM 55.4 °F 55.4 °F 100% 30.11 in 10.0 mi SW 10.4 mph - N/A   Overcast
7:31 AM 55.4 °F 55.4 °F 100% 30.11 in 10.0 mi SW 10.4 mph - N/A   Overcast
7:41 AM 55.4 °F 55.4 °F 100% 30.11 in 10.0 mi SSW 10.4 mph - N/A   Overcast
7:53 AM 55.9 °F 55.0 °F 97% 30.11 in 7.0 mi SW 10.4 mph - 0.00 in Rain Light Rain
8:29 AM 55.4 °F 55.4 °F 100% 30.11 in 2.0 mi SSW 11.5 mph - 0.02 in Rain Light Rain
8:36 AM 55.4 °F 55.4 °F 100% 30.10 in 1.5 mi SSW 12.7 mph - 0.04 in Rain Rain
8:43 AM 55.4 °F 55.4 °F 100% 30.10 in 2.0 mi SSW 11.5 mph - 0.05 in Rain Light Rain
8:49 AM 55.4 °F 55.4 °F 100% 30.10 in 2.5 mi SSW 11.5 mph - 0.05 in Rain Light Rain
8:53 AM 55.9 °F 55.0 °F 97% 30.11 in 4.0 mi SSW 12.7 mph - 0.05 in Rain Light Rain
9:07 AM 55.4 °F 55.4 °F 100% 30.10 in 1.8 mi SSW 12.7 mph - 0.01 in Rain Rain
9:20 AM 55.4 °F 55.4 °F 100% 30.10 in 3.0 mi SSW 16.1 mph - 0.02 in Rain Light Rain
9:53 AM 55.9 °F 55.9 °F 100% 30.10 in 6.0 mi SW 10.4 mph - 0.02 in   Overcast
10:53 AM 55.9 °F 55.9 °F 100% 30.08 in 7.0 mi SW 9.2 mph - 0.00 in   Overcast
11:53 AM 55.9 °F 55.9 °F 100% 30.06 in 8.0 mi SW 9.2 mph - N/A   Overcast
12:53 PM 55.9 °F 55.9 °F 100% 30.03 in 3.0 mi SW 9.2 mph - N/A   Overcast
1:20 PM 55.4 °F 55.4 °F 100% 30.02 in 1.8 mi SW 8.1 mph - 0.00 in Rain Light Rain
1:26 PM 55.4 °F 55.4 °F 100% 30.01 in 3.0 mi SSW 6.9 mph - 0.00 in   Overcast
1:40 PM 55.4 °F 55.4 °F 100% 30.01 in 3.0 mi SSW 10.4 mph - 0.00 in Rain Light Rain
1:53 PM 55.4 °F 55.4 °F 100% 30.01 in 4.0 mi SSW 10.4 mph - N/A   Overcast
2:53 PM 55.0 °F 55.0 °F 100% 30.00 in 6.0 mi SSW 8.1 mph - 0.01 in   Overcast
3:53 PM 55.0 °F 55.0 °F 100% 29.99 in 4.0 mi SSW 5.8 mph - 0.00 in Rain Light Rain
4:34 PM 55.4 °F 55.4 °F 100% 29.99 in 2.0 mi SSW 11.5 mph - 0.00 in Rain Light Rain
4:53 PM 55.0 °F 55.0 °F 100% 29.99 in 2.0 mi SSW 9.2 mph - 0.02 in Rain Light Rain
5:53 PM 55.9 °F 55.9 °F 100% 29.98 in 2.0 mi SSW 10.4 mph - 0.04 in Rain Light Rain
6:53 PM 55.0 °F 55.0 °F 100% 29.98 in 2.0 mi SW 8.1 mph - 0.03 in Rain Light Rain
7:53 PM 55.9 °F 55.9 °F 100% 29.97 in 2.0 mi SW 10.4 mph - 0.03 in   Overcast
8:53 PM 57.0 °F 57.0 °F 100% 29.96 in 2.0 mi SW 9.2 mph - 0.03 in Rain Light Rain
9:53 PM 55.9 °F 55.9 °F 100% 29.96 in 2.0 mi SSW 8.1 mph - 0.03 in Rain Light Rain
10:53 PM 57.0 °F 55.9 °F 96% 29.95 in 2.0 mi SSW 8.1 mph - 0.00 in Rain Light Rain
11:53 PM 55.9 °F 55.9 °F 100% 29.94 in 2.0 mi SW 8.1 mph - 0.01 in   Overcast